Location: Sungai Bunut
(2.6333°N, 113.7333°E)
Time: 18:49:50
(UTC+00:00)

S-56A Canister/Altair - Pass Details

Date: 07 December 2023
Orbit: 640 x 2488 km, 38.9° (Epoch: 20 February)

Event Time Altitude Azimuth Distance (km) Brightness Sun altitude
Rises 21:34:38 0° 212° (SSW) 5,862 11.9 -10.7°
Reaches altitude 10° 21:39:34 10° 202° (SSW) 4,614 11.5 -9.6°
Maximum altitude 21:49:32 29° 147° (SSE) 2,725 11.0 -7.3°
Drops below altitude 10° 21:56:50 10° 90° (E) 3,348 12.1 -5.6°
Sets 21:59:45 0° 79° (ENE) 4,063 12.3 -4.9°
